SNAP-3 JIMI

Last updated on Thu Nov 21 2024 00:03:39 GMT+0000 (Coordinated Universal Time)

1 40975U 15058M 24325.10700729 .00011922 00000+0 90083-3 0 9993 2 40975 64.7676 223.6428 0172764 258.9609 99.2031 14.91538917 28244
UTC large
Height (km)
Speed (km/s)
/
Latitude / Longitude
Inclination (degrees)
Orbital Period (minutes)
Azimuth
Elevation
Range (km)
Doppler Factor

Next 0 passes for location: London (51.5072 / 0.1276)

Sorry there are no passes over London.